Humidity-temperature Sensor

Selected Measurement Type: Relative Humidity

 
Relative Humidity [%]     6 entries per hour
Showing data from 6/21/2019 (00:00:00 Z) to 6/18/2019 (00:01:00 Z)
Previous Next [ Day | 3-Days | 7-Days ]
First Last
Prev [ Day | 3-Days | 7-Days ] Next
First Last

Start Time:     :
End Time:     :     
Time (in GMT) :00 :50 :40 :30 :20 :10
Previous Next [ Day | 3-Days | 7-Days ]
First Last
Prev [ Day | 3-Days | 7-Days ] Next
First Last


123 => good data
MM => data is determined as missing
-- => data not received/configured
Back to Top Back to Top
6/21/2019 00:00 to 23:10 84.22 85.61 86.35 86.41 86.61 86.04
6/20/2019 23:00 to 22:10 85.20 83.67 84.47 84.92 84.38 84.90
6/20/2019 22:00 to 21:10 85.28 85.39 84.79 85.18 85.26 84.75
6/20/2019 21:00 to 20:10 85.02 85.94 86.90 88.11 87.76 87.66
6/20/2019 20:00 to 19:10 88.05 87.48 86.08 87.07 85.22 88.50
6/20/2019 19:00 to 18:10 87.33 86.84 85.14 85.76 85.14 85.71
6/20/2019 18:00 to 17:10 84.38 84.87 85.69 85.24 86.74 84.12
6/20/2019 17:00 to 16:10 84.85 85.98 85.71 90.38 90.71 90.22
6/20/2019 16:00 to 15:10 89.52 88.44 85.63 87.21 86.23 87.00
6/20/2019 15:00 to 14:10 84.83 87.15 88.77 86.51 85.78 86.74
6/20/2019 14:00 to 13:10 86.33 86.49 87.60 86.68 86.84 87.80
6/20/2019 13:00 to 12:10 88.79 88.77 89.65 90.46 92.62 92.64
6/20/2019 12:00 to 11:10 91.16 89.54 87.88 88.74 89.87 90.32
6/20/2019 11:00 to 10:10 89.65 88.60 90.61 90.59 91.12 91.33
6/20/2019 10:00 to 9:10 91.20 90.73 91.45 91.10 90.44 91.20
6/20/2019 09:00 to 8:10 89.73 90.18 90.75 91.20 90.47 90.55
6/20/2019 08:00 to 7:10 91.30 92.14 91.20 92.35 90.90 89.54
6/20/2019 07:00 to 6:10 89.89 90.34 87.37 85.47 85.63 87.56
6/20/2019 06:00 to 5:10 89.40 88.64 86.33 85.51 86.33 85.82
6/20/2019 05:00 to 4:10 86.02 85.00 85.28 85.14 84.67 85.75
6/20/2019 04:00 to 3:10 85.32 85.39 84.44 83.87 84.69 83.97
6/20/2019 03:00 to 2:10 84.79 83.87 84.53 84.69 85.20 83.91
6/20/2019 02:00 to 1:10 83.95 85.45 84.63 84.53 85.33 85.37
6/20/2019 01:00 to 0:10 84.90 85.00 85.65 85.43 84.98 85.47
6/20/2019 00:00 to 23:10 85.53 87.35 87.45 87.56 87.68 87.91
6/19/2019 23:00 to 22:10 87.19 86.59 86.14 85.98 86.47 85.73
6/19/2019 22:00 to 21:10 85.16 83.89 84.08 84.79 85.35 85.47
6/19/2019 21:00 to 20:10 85.84 85.86 85.37 85.90 85.94 85.35
6/19/2019 20:00 to 19:10 84.24 85.41 84.61 87.04 87.09 86.47
6/19/2019 19:00 to 18:10 87.56 86.00 88.38 88.66 87.72 86.92
6/19/2019 18:00 to 17:10 86.96 87.15 87.72 86.49 87.54 87.21
6/19/2019 17:00 to 16:10 86.43 87.48 87.80 88.05 88.36 86.61
6/19/2019 16:00 to 15:10 87.52 86.47 87.21 86.64 87.43 87.86
6/19/2019 15:00 to 14:10 86.29 87.21 85.78 86.00 85.67 86.45
6/19/2019 14:00 to 13:10 86.43 85.98 85.20 85.35 84.69 85.67
6/19/2019 13:00 to 12:10 85.30 85.35 84.59 85.24 85.94 87.21
6/19/2019 12:00 to 11:10 85.96 86.02 87.13 87.39 86.68 86.70
6/19/2019 11:00 to 10:10 87.21 87.31 87.27 86.64 87.31 86.94
6/19/2019 10:00 to 9:10 85.33 86.51 85.06 85.20 84.83 85.10
6/19/2019 09:00 to 8:10 84.44 83.93 84.69 84.40 84.71 84.24
6/19/2019 08:00 to 7:10 84.89 84.63 84.44 83.71 84.55 84.71
6/19/2019 07:00 to 6:10 84.47 83.87 83.24 83.91 83.75 83.95
6/19/2019 06:00 to 5:10 82.87 84.10 83.69 82.87 83.28 82.79
6/19/2019 05:00 to 4:10 83.42 84.51 83.67 84.16 84.32 85.06
6/19/2019 04:00 to 3:10 85.88 86.82 86.61 87.04 86.76 86.96
6/19/2019 03:00 to 2:10 86.49 86.53 88.81 88.91 90.18 90.83
6/19/2019 02:00 to 1:10 90.38 90.94 91.26 91.75 90.65 90.34
6/19/2019 01:00 to 0:10 88.93 88.89 87.74 88.89 89.44 89.30
6/19/2019 00:00 to 23:10 90.67 90.81 91.04 91.37 89.15 88.42
6/18/2019 23:00 to 22:10 86.92 86.41 86.35 84.61 84.87 85.00
6/18/2019 22:00 to 21:10 85.47 85.88 87.11 88.21 87.25 86.76
6/18/2019 21:00 to 20:10 86.31 86.49 84.08 83.97 83.28 84.24
6/18/2019 20:00 to 19:10 83.95 85.45 85.90 87.02 87.47 87.04
6/18/2019 19:00 to 18:10 87.17 88.40 88.46 89.11 89.11 89.48
6/18/2019 18:00 to 17:10 91.04 92.39 93.39 94.19 93.74 93.17
6/18/2019 17:00 to 16:10 93.11 93.70 94.25 94.03 93.93 92.59
6/18/2019 16:00 to 15:10 93.35 93.05 93.13 91.86 91.63 88.85
6/18/2019 15:00 to 14:10 88.97 89.44 91.45 90.49 88.93 90.47
6/18/2019 14:00 to 13:10 90.73 90.14 91.26 90.90 92.06 91.45
6/18/2019 13:00 to 12:10 91.71 93.09 94.25 95.69 96.01 96.48
6/18/2019 12:00 to 11:10 96.57 95.63 94.40 95.56 95.34 95.81
6/18/2019 11:00 to 10:10 94.93 95.30 94.38 95.60 95.85 95.65
6/18/2019 10:00 to 9:10 94.48 93.84 93.97 93.33 94.23 94.62
6/18/2019 09:00 to 8:10 94.87 94.21 93.80 91.92 90.36 86.66
6/18/2019 08:00 to 7:10 86.29 84.22 85.43 87.11 87.37 88.05
6/18/2019 07:00 to 6:10 88.56 88.66 88.66 89.24 89.75 89.26
6/18/2019 06:00 to 5:10 84.16 84.18 84.14 86.37 86.45 84.69
6/18/2019 05:00 to 4:10 83.97 82.77 83.87 82.03 81.50 80.88
6/18/2019 04:00 to 3:10 82.11 84.65 84.44 84.81 84.51 86.51
6/18/2019 03:00 to 2:10 89.75 86.49 90.49 87.37 84.63 84.30
6/18/2019 02:00 to 1:10 83.42 83.67 83.83 82.97 81.70 82.56
6/18/2019 01:00 to 0:10 81.29 82.56 82.42 82.72 83.52 83.22